Location: Gorze? G�rny
(49.8500°N, 19.5000°E)
Time: 05:29:30
(UTC+00:00)

Okean 1 - Pass Details

Date: 13 May 2021
Orbit: 537 x 554 km, 82.5° (Epoch: 20 June)

Event Time Altitude Azimuth Distance (km) Brightness Sun altitude
Exits shadow 20:42:42 31° 117° (ESE) 981 4.1 -16.9°
Maximum altitude 20:43:31 34° 92° (E) 916 4.2 -17.0°
Drops below altitude 10° 20:47:09 10° 27° (NNE) 1,823 6.4 -17.3°
Sets 20:49:26 0° 18° (NNE) 2,719 7.6 -17.4°
